Back to catalog

FENGYUN 1C DEB

AliveSSO
NORAD 30087·DEBRIS·🇨🇳 China

Launched May 10, 1999 from Taiyuan Satellite Launch Center

Loading…

Next Passes (next 24 hours)

TLE

FreshSource: Space-Track

Epoch: Sep 14, 2026, 08:17 UTC

1 30087U 99025QQ  26257.34543519  .00000676  00000-0  18488-3 0  9990
2 30087  98.3522 286.7463 0228225  17.8375 354.9087 14.36224140 26491

Track FENGYUN 1C DEB in real time with AllMySat

Download on the App Store